IRIDIUM 106 1 41917U 17003A 26237.02678669 .00000066 00000+0 16546-4 0 9994 2 41917 86.3915 59.7537 0002338 82.6042 277.5419 14.34217981503070 IRIDIUM 103 1 41918U 17003B 26237.01409956 .00000066 00000+0 16331-4 0 9997 2 41918 86.3915 59.6586 0002291 93.1850 266.9608 14.34217756503090 IRIDIUM 109 1 41919U 17003C 26237.02044555 .00000063 00000+0 15452-4 0 9999 2 41919 86.3916 59.7166 0002193 90.7089 269.4358 14.34217804503066 IRIDIUM 102 1 41920U 17003D 26237.05849843 .00000013 00000+0 -25584-5 0 9991 2 41920 86.3916 59.6229 0002043 88.2772 271.8658 14.34217089503157 IRIDIUM 105 1 41921U 17003E 26236.87755933 -.00000012 00000+0 -11283-4 0 9997 2 41921 86.3972 28.1362 0001981 99.2175 260.9245 14.34217023504989 IRIDIUM 104 1 41922U 17003F 26237.00142557 .00000067 00000+0 16797-4 0 9999 2 41922 86.3916 59.6902 0002158 97.6846 262.4595 14.34218658503137 IRIDIUM 114 1 41923U 17003G 26237.21706183 .00000080 00000+0 21575-4 0 9999 2 41923 86.3916 59.5830 0002219 92.4395 267.7054 14.34217222503142 IRIDIUM 108 1 41924U 17003H 26236.40813021 .00000105 00000+0 30409-4 0 9994 2 41924 86.3964 28.2181 0002100 92.2252 267.9184 14.34217902504880 IRIDIUM 112 1 41925U 17003J 26236.43692364 .00000045 00000+0 91659-5 0 9991 2 41925 86.3911 59.7485 0002144 91.4675 268.6766 14.34217948503059 IRIDIUM 111 1 41926U 17003K 26237.05215547 .00000070 00000+0 18002-4 0 9993 2 41926 86.3913 59.5630 0002200 89.2351 270.9097 14.34218153503121 IRIDIUM 113 1 42803U 17039A 26237.17165707 .00000019 00000+0 -20224-6 0 9997 2 42803 86.3956 293.3502 0002163 97.0553 263.0889 14.34217722481070 IRIDIUM 123 1 42804U 17039B 26237.21313681 .00000016 00000+0 -12859-5 0 9990 2 42804 86.4007 324.7987 0002277 93.2521 266.8936 14.34217563479843 IRIDIUM 120 1 42805U 17039C 26237.16531467 .00000000 00000+0 -70883-5 0 9993 2 42805 86.3944 293.1262 0002174 90.6727 269.4718 14.34217499481065 IRIDIUM 115 1 42806U 17039D 26237.17208738 .00000284 00000+0 78457-4 0 9994 2 42806 86.4483 293.2619 0002511 92.1732 267.9756 14.43280212484218 IRIDIUM 118 1 42807U 17039E 26237.24484926 .00000005 00000+0 -52103-5 0 9991 2 42807 86.4005 324.7831 0002107 95.6387 264.5049 14.34217613479846 IRIDIUM 117 1 42808U 17039F 26237.19410922 -.00000025 00000+0 -15941-4 0 9992 2 42808 86.4005 324.7613 0002188 94.5833 265.5612 14.34217182479868 IRIDIUM 126 1 42809U 17039G 26237.21947904 .00000014 00000+0 -22053-5 0 9991 2 42809 86.4009 324.8032 0002214 97.9975 262.1472 14.34217587479847 IRIDIUM 124 1 42810U 17039H 26237.10590405 .00000148 00000+0 37877-4 0 9997 2 42810 86.4434 261.5345 0002426 92.1748 267.9731 14.43278416485054 IRIDIUM 128 1 42811U 17039J 26236.58229892 .00000212 00000+0 68756-4 0 9990 2 42811 86.4018 356.5603 0002185 90.8324 269.3122 14.34217676479786 IRIDIUM 121 1 42812U 17039K 26236.95943270 -.00000010 00000+0 -10524-4 0 9993 2 42812 86.4009 324.9399 0002115 94.0099 266.1338 14.34217404479688 IRIDIUM 133 1 42955U 17061A 26237.31169673 .00000038 00000+0 63693-5 0 9998 2 42955 86.4020 356.3750 0002204 92.8665 267.2783 14.34218183464688 IRIDIUM 100 1 42956U 17061B 26237.30535542 .00000018 00000+0 -80512-6 0 9999 2 42956 86.4014 356.2948 0002074 93.4328 266.7105 14.34217606464689 IRIDIUM 122 1 42957U 17061C 26237.27364261 .00000019 00000+0 -12072-6 0 9991 2 42957 86.4015 356.3085 0002151 95.2237 264.9204 14.34217671464681 IRIDIUM 129 1 42958U 17061D 26237.29901240 .00000065 00000+0 16315-4 0 9990 2 42958 86.4020 356.3654 0002098 98.8931 261.2502 14.34217675464708 IRIDIUM 119 1 42959U 17061E 26237.26730026 -.00000013 00000+0 -11810-4 0 9990 2 42959 86.4016 356.3751 0002154 96.3491 263.7951 14.34217410464712 IRIDIUM 107 1 42960U 17061F 26237.28632839 .00000019 00000+0 -22797-6 0 9990 2 42960 86.4019 356.3885 0002430 92.5026 267.6449 14.34217720464724 IRIDIUM 132 1 42961U 17061G 26237.29266786 .00000194 00000+0 62237-4 0 9990 2 42961 86.4018 356.3648 0002164 94.7230 265.4213 14.34217626464726 IRIDIUM 136 1 42962U 17061H 26237.04530854 .00000170 00000+0 53473-4 0 9990 2 42962 86.4018 356.4750 0002149 93.1680 266.9761 14.34217889464700 IRIDIUM 139 1 42963U 17061J 26237.26095720 .00000030 00000+0 36034-5 0 9993 2 42963 86.4021 356.4480 0002227 92.2050 267.9400 14.34217847464742 IRIDIUM 125 1 42964U 17061K 26237.31804159 -.00000007 00000+0 -97063-5 0 9999 2 42964 86.4019 356.4868 0002515 100.7683 259.3796 14.34217461464764 IRIDIUM 135 1 43070U 17083A 26237.22239823 .00000028 00000+0 28877-5 0 9990 2 43070 86.3952 293.1614 0002288 94.5360 265.6098 14.34217625454040 IRIDIUM 138 1 43071U 17083B 26237.17800035 .00000026 00000+0 22872-5 0 9991 2 43071 86.3966 292.8861 0002329 97.1508 262.9953 14.34217630454029 IRIDIUM 116 1 43072U 17083C 26237.21605560 .00000010 00000+0 -36378-5 0 9993 2 43072 86.3948 293.1488 0002189 87.2039 272.9408 14.34217513454062 IRIDIUM 130 1 43073U 17083D 26237.18434289 .00000042 00000+0 80254-5 0 9994 2 43073 86.3960 293.4446 0002422 89.5271 270.6202 14.34217791454006 IRIDIUM 151 1 43074U 17083E 26237.15897251 .00000010 00000+0 -33373-5 0 9990 2 43074 86.3952 293.2321 0002157 92.4836 267.6606 14.34217497454022 IRIDIUM 134 1 43075U 17083F 26237.19702782 .00000042 00000+0 79623-5 0 9991 2 43075 86.3954 293.2257 0002318 92.4543 267.6919 14.34217768453990 IRIDIUM 137 1 43076U 17083G 26237.20971255 -.00000010 00000+0 -10538-4 0 9993 2 43076 86.3952 293.3140 0001893 86.9953 273.1459 14.34217381454062 IRIDIUM 141 1 43077U 17083H 26237.20337016 .00000036 00000+0 58059-5 0 9992 2 43077 86.3950 293.1436 0002302 95.3942 264.7517 14.34217759454065 IRIDIUM 153 1 43078U 17083J 26237.15554859 .00000003 00000+0 -58843-5 0 9999 2 43078 86.3914 261.6285 0002265 95.0382 265.1073 14.34217516455166 IRIDIUM 131 1 43079U 17083K 26237.19068498 .00000146 00000+0 45147-4 0 9992 2 43079 86.3958 293.3397 0002222 95.3445 264.8005 14.34218129453998 IRIDIUM 144 1 43249U 18030A 26237.30141970 .00000146 00000+0 45092-4 0 9993 2 43249 86.3910 261.4949 0002301 88.9928 271.1531 14.34216925440045 IRIDIUM 149 1 43250U 18030B 26237.30777095 .00000022 00000+0 77987-6 0 9991 2 43250 86.3911 261.4586 0002196 93.1372 267.0075 14.34217603440061 IRIDIUM 157 1 43251U 18030C 26237.11749280 -.00000009 00000+0 -10390-4 0 9996 2 43251 86.3912 261.5928 0002192 92.0758 268.0689 14.34217519440019 IRIDIUM 140 1 43252U 18030D 26237.13652071 -.00000027 00000+0 -16645-4 0 9999 2 43252 86.3912 261.5974 0002227 91.5755 268.5696 14.34217330440071 IRIDIUM 145 1 43253U 18030E 26237.12383555 .00000009 00000+0 -39871-5 0 9993 2 43253 86.3911 261.5746 0002253 84.4790 275.6663 14.34217646440003 IRIDIUM 146 1 43254U 18030F 26237.31411278 -.00000011 00000+0 -11089-4 0 9993 2 43254 86.3913 261.5070 0002216 88.8626 271.2824 14.34217461440041 IRIDIUM 148 1 43255U 18030G 26237.14286289 .00000002 00000+0 -64168-5 0 9993 2 43255 86.3915 261.6230 0002072 92.0833 268.0600 14.34217508440059 IRIDIUM 142 1 43256U 18030H 26237.11115054 .00000012 00000+0 -26723-5 0 9998 2 43256 86.3910 261.5227 0002166 87.3934 272.7510 14.34217602440016 IRIDIUM 150 1 43257U 18030J 26237.14920660 .00000046 00000+0 95086-5 0 9993 2 43257 86.3914 261.6255 0002346 90.3819 269.7645 14.34217722440040 IRIDIUM 143 1 43258U 18030K 26237.13018918 .00000159 00000+0 49655-4 0 9992 2 43258 86.3915 261.7287 0002375 89.0987 271.0481 14.34220514439978 IRIDIUM 161 1 43478U 18047C 26237.01451638 .00000078 00000+0 17257-4 0 9994 2 43478 86.4436 59.6692 0002086 93.0252 267.1188 14.43280514435066 IRIDIUM 152 1 43479U 18047D 26237.03312896 .00000079 00000+0 20974-4 0 9990 2 43479 86.3912 59.5233 0002152 90.6176 269.5266 14.34217397432358 IRIDIUM 147 1 43480U 18047E 26237.24877540 .00000066 00000+0 16451-4 0 9998 2 43480 86.3912 59.4393 0002149 86.4304 273.7138 14.34218175432381 IRIDIUM 110 1 43481U 18047F 26237.25512161 .00000067 00000+0 17035-4 0 9995 2 43481 86.3914 59.5304 0002054 96.5625 263.5805 14.34217705432375 IRIDIUM 162 1 43482U 18047G 26237.21620494 .00000088 00000+0 20267-4 0 9995 2 43482 86.4434 59.4749 0002252 88.8859 271.2600 14.43280392435081 IRIDIUM 160 1 43569U 18061A 26236.85211161 .00000024 00000+0 15889-5 0 9998 2 43569 86.3966 28.0721 0001988 92.3939 267.7484 14.34217643423213 IRIDIUM 166 1 43570U 18061B 26236.66817657 .00000017 00000+0 -10838-5 0 9993 2 43570 86.3967 28.0988 0002067 89.9066 270.2366 14.34217644423212 IRIDIUM 158 1 43571U 18061C 26237.12484401 -.00000046 00000+0 -23573-4 0 9995 2 43571 86.3968 27.9180 0002107 92.8996 267.2441 14.34217066423247 IRIDIUM 165 1 43572U 18061D 26237.15021407 .00000144 00000+0 44279-4 0 9995 2 43572 86.3972 27.9546 0002171 90.1269 270.0175 14.34217976423273 IRIDIUM 155 1 43573U 18061E 26237.18192124 .00000195 00000+0 62492-4 0 9997 2 43573 86.3967 27.8071 0002235 91.2658 268.8794 14.34220109423246 IRIDIUM 154 1 43574U 18061F 26237.16289664 .00000204 00000+0 65706-4 0 9994 2 43574 86.3972 27.9520 0002097 88.5782 271.5654 14.34217168423298 IRIDIUM 163 1 43575U 18061G 26236.37641615 -.00000047 00000+0 -23731-4 0 9994 2 43575 86.3966 28.1939 0002143 93.3664 266.7777 14.34216500423150 IRIDIUM 156 1 43576U 18061H 26237.11850106 .00000182 00000+0 58030-4 0 9993 2 43576 86.3966 27.8909 0002329 90.3795 269.7668 14.34219962423250 IRIDIUM 164 1 43577U 18061J 26236.82039888 -.00000004 00000+0 -83278-5 0 9995 2 43577 86.3967 28.0573 0002006 89.0107 271.1319 14.34217487423256 IRIDIUM 159 1 43578U 18061K 26236.85845450 .00000136 00000+0 41444-4 0 9991 2 43578 86.3966 27.9765 0002143 94.8703 265.2738 14.34217843423227 IRIDIUM 180 1 43922U 19002A 26237.20680805 .00000313 00000+0 10455-3 0 9995 2 43922 86.4009 324.7614 0002161 95.7013 264.4430 14.34219076398887 IRIDIUM 176 1 43923U 19002B 26237.21417894 .00000621 00000+0 94633-4 0 9996 2 43923 86.6132 324.6921 0002383 92.5252 267.6238 14.72253131409407 IRIDIUM 168 1 43924U 19002C 26237.20045091 .00000027 00000+0 25434-5 0 9996 2 43924 86.4009 324.8430 0002111 95.8653 264.2784 14.34217703398865 IRIDIUM 173 1 43925U 19002D 26237.25753412 .00000022 00000+0 74024-6 0 9990 2 43925 86.4006 324.7051 0002174 95.3437 264.8007 14.34217735398853 IRIDIUM 169 1 43926U 19002E 26237.32113094 .00000233 00000+0 69540-4 0 9994 2 43926 86.4273 356.2953 0002709 93.4091 266.7418 14.38612545400167 IRIDIUM 172 1 43927U 19002F 26237.18142337 .00000017 00000+0 -10206-5 0 9998 2 43927 86.4009 324.7453 0002222 95.9474 264.1975 14.34217640398857 IRIDIUM 175 1 43928U 19002G 26237.10473080 .00000189 00000+0 49849-4 0 9996 2 43928 86.4465 261.7051 0003793 33.1984 326.9454 14.43642068408927 IRIDIUM 171 1 43929U 19002H 26237.16239458 .00000120 00000+0 35934-4 0 9997 2 43929 86.4019 325.0669 0002253 93.0832 267.0622 14.34218232398842 IRIDIUM 170 1 43930U 19002J 26237.22035756 .00000541 00000+0 81814-4 0 9996 2 43930 86.6130 324.6913 0002346 96.1449 264.0035 14.72253624409415 IRIDIUM 167 1 43931U 19002K 26237.22582153 -.00000073 00000+0 -33184-4 0 9994 2 43931 86.4009 324.7493 0002362 88.3300 271.8167 14.34216723398854 IRIDIUM 181 1 56726U 23068S 26236.67323237 .00000246 00000+0 67183-4 0 9997 2 56726 86.4504 28.1469 0002017 91.1647 268.9785 14.43309012172319 IRIDIUM 177 1 56727U 23068T 26237.21653544 .00000768 00000+0 98031-4 0 9991 2 56727 86.1958 296.0261 0002533 95.9948 264.1561 14.80037093176575 IRIDIUM 174 1 56728U 23068U 26237.20800291 .00000659 00000+0 10063-3 0 9991 2 56728 86.6138 324.8508 0002607 100.0776 260.0736 14.72252191176178 IRIDIUM 178 1 56729U 23068V 26237.27325328 .00000890 00000+0 11419-3 0 9995 2 56729 86.6587 356.5005 0002477 93.3100 266.8405 14.80045449176588 IRIDIUM 179 1 56730U 23068W 26236.79460346 .00000840 00000+0 10763-3 0 9999 2 56730 86.6815 5.8781 0002486 90.3368 269.8139 14.80049169176515